Weather History for KUZA - July, 2013

Change the Weather History Date:

Tuesday, July 30, 2013

  Actual Average Record
Temperature  
Mean Temperature 76 °F -  
Max Temperature 86 °F 88 °F 102 °F (2002)
Min Temperature 69 °F 69 °F 59 °F (1960)
Cooling Degree Days 12    
Growing Degree Days 26 (Base 50)    
Moisture  
Dew Point 70 °F    
Average Humidity 85    
Maximum Humidity 100    
Minimum Humidity 53    
Precipitation  
Precipitation 0.00 in - - ()
Sea Level Pressure  
Sea Level Pressure 30.17 in    
Wind  
Wind Speed 2 mph (ENE)    
Max Wind Speed 7 mph    
Max Gust Speed -    
Visibility 6 miles    
Events Fog    
Averages and records for this station are not official NWS values.
T = Trace of Precipitation, MM = Missing Value Source: NWS Daily Summary

Daily Weather History Graph

Daily Weather History Graph

Search for Another Location

Airport or City:

Trip Planner

Search our weather history database for the weather conditions in past years. The results will help you decide how hot, cold, wet, or windy it might be!

Date:

Astronomy

Jul. 30, 2013 Rise Set
Actual Time 6:32 AM EDT 8:28 PM EDT
Civil Twilight 6:04 AM EDT 8:56 PM EDT
Nautical Twilight 5:30 AM EDT 9:30 PM EDT
Astronomical Twilight 4:54 AM EDT 10:06 PM EDT
Moon 12:47 AM EDT (7/30) 2:48 PM EDT (7/30)
Length of Visible Light 14h 51m
Length of Day
13h 56m
Last Quarter, 41% of the Moon is Illuminated
Jul 30
Last Quarter
Aug 6
New
Aug 14
First Quarter
Aug 20
Full
Aug 28
Last Quarter

Hourly Weather History & Observations

Time (EDT) Temp. Heat Index Dew Point Humidity Pressure Visibility Wind Dir Wind Speed Gust Speed Precip Events Conditions
12:54 AM 70.0 °F - 69.1 °F 97% 30.14 in 6.0 mi Calm Calm - N/A   Clear
1:54 AM 70.0 °F - 69.1 °F 97% 30.15 in 5.0 mi Calm Calm - N/A   Clear
2:05 AM 69.1 °F - 69.1 °F 100% 30.18 in 3.0 mi Calm Calm - N/A   Scattered Clouds
2:16 AM 71.1 °F - 70.0 °F 96% 30.17 in 4.0 mi Calm Calm - N/A   Mostly Cloudy
2:37 AM 71.1 °F - 71.1 °F 100% 30.18 in 1.8 mi Calm Calm - N/A   Overcast
2:54 AM 72.0 °F - 72.0 °F 100% 30.13 in 1.0 mi South 3.5 mph - N/A   Overcast
2:58 AM 72.0 °F - 72.0 °F 100% 30.17 in 0.5 mi SSW 4.6 mph - N/A Fog Fog
3:18 AM 72.0 °F - 72.0 °F 100% 30.17 in 0.8 mi Calm Calm - N/A   Mist
3:26 AM 72.0 °F - 72.0 °F 100% 30.17 in 0.5 mi Calm Calm - N/A Fog Fog
3:54 AM 71.1 °F - 71.1 °F 100% 30.13 in 0.2 mi Calm Calm - N/A Fog Fog
4:40 AM 72.0 °F - 72.0 °F 100% 30.18 in 1.0 mi North 4.6 mph - N/A   Mist
4:54 AM 72.0 °F - 72.0 °F 100% 30.14 in 3.0 mi North 4.6 mph - N/A   Overcast
5:19 AM 72.0 °F - 72.0 °F 100% 30.19 in 2.5 mi NNE 5.8 mph - N/A   Overcast
5:27 AM 72.0 °F - 72.0 °F 100% 30.19 in 3.0 mi NE 3.5 mph - N/A   Overcast
5:43 AM 72.0 °F - 72.0 °F 100% 30.19 in 4.0 mi NE 4.6 mph - N/A   Overcast
5:54 AM 71.1 °F - 71.1 °F 100% 30.16 in 4.0 mi NE 4.6 mph - N/A   Overcast
6:38 AM 72.0 °F - 70.0 °F 93% 30.21 in 3.0 mi Calm Calm - N/A   Scattered Clouds
6:46 AM 72.0 °F - 71.1 °F 97% 30.21 in 2.5 mi Calm Calm - N/A   Mostly Cloudy
6:54 AM 72.0 °F - 71.1 °F 97% 30.18 in 3.0 mi Variable 3.5 mph - N/A   Mostly Cloudy
7:15 AM 72.0 °F - 70.0 °F 93% 30.22 in 4.0 mi Calm Calm - N/A   Scattered Clouds
7:54 AM 72.0 °F - 70.0 °F 93% 30.19 in 5.0 mi Variable 3.5 mph - N/A   Clear
8:54 AM 73.9 °F - 69.1 °F 85% 30.21 in 7.0 mi Variable 4.6 mph - N/A   Clear
9:54 AM 77.0 °F - 69.1 °F 76% 30.21 in 10.0 mi ENE 4.6 mph - N/A   Scattered Clouds
10:54 AM 78.1 °F - 66.0 °F 66% 30.21 in 10.0 mi NE 5.8 mph - N/A   Clear
11:54 AM 80.1 °F 82.1 °F 66.0 °F 62% 30.20 in 10.0 mi Variable 5.8 mph - N/A   Overcast
12:54 PM 82.0 °F 84.1 °F 66.0 °F 58% 30.19 in 10.0 mi SSE 5.8 mph - N/A   Clear
1:54 PM 82.9 °F 85.0 °F 66.0 °F 56% 30.17 in 10.0 mi East 6.9 mph - N/A   Partly Cloudy
2:54 PM 84.0 °F 86.3 °F 66.0 °F 55% 30.16 in 10.0 mi East 4.6 mph - N/A   Partly Cloudy
3:54 PM 84.0 °F 85.8 °F 64.9 °F 53% 30.14 in 10.0 mi East 3.5 mph - N/A   Clear
4:54 PM 84.0 °F 86.3 °F 66.0 °F 55% 30.14 in 10.0 mi Calm Calm - N/A   Clear
5:54 PM 82.9 °F 85.4 °F 66.9 °F 58% 30.13 in 10.0 mi NE 3.5 mph - N/A   Clear
6:54 PM 82.9 °F 85.4 °F 66.9 °F 58% 30.12 in 10.0 mi Calm Calm - N/A   Clear
7:54 PM 80.1 °F 82.9 °F 69.1 °F 69% 30.12 in 10.0 mi Calm Calm - N/A   Clear
8:54 PM 75.9 °F - 71.1 °F 85% 30.13 in 10.0 mi Calm Calm - N/A   Clear
9:54 PM 75.0 °F - 71.1 °F 87% 30.14 in 10.0 mi Calm Calm - N/A   Clear
10:54 PM 75.0 °F - 71.1 °F 87% 30.15 in 10.0 mi Calm Calm - N/A   Clear
11:54 PM 73.0 °F - 70.0 °F 90% 30.15 in 10.0 mi Calm Calm - N/A   Clear